Time,TemperatureF,DewpointF,PressureIn,WindDirection,WindDirectionDegrees,WindSpeedMPH,WindSpeedGustMPH,Humidity,HourlyPrecipIn,Conditions,Clouds,dailyrainin,SoftwareType,DateUTC
2013-06-28 00:10:00,76.8,75.6,29.88,SSW,202,3.1,-999.0,96,-99.99,,,0.00,Acu-Link.com,2013-06-28 05:10:00,
2013-06-28 00:26:00,76.8,75.6,29.89,South,180,0.0,-999.0,96,-99.99,,,0.00,Acu-Link.com,2013-06-28 05:26:00,
2013-06-28 00:41:00,76.6,75.4,29.89,South,180,1.6,-999.0,96,-99.99,,,0.00,Acu-Link.com,2013-06-28 05:41:00,
2013-06-28 00:56:00,76.5,75.2,29.89,SSW,202,1.1,-999.0,96,-99.99,,,0.00,Acu-Link.com,2013-06-28 05:56:00,
2013-06-28 01:11:00,76.1,74.9,29.89,SW,225,2.2,-999.0,96,-99.99,,,0.00,Acu-Link.com,2013-06-28 06:11:00,
2013-06-28 01:27:00,75.7,74.8,29.89,West,270,0.0,-999.0,97,-99.99,,,0.00,Acu-Link.com,2013-06-28 06:27:00,
2013-06-28 01:42:00,75.7,74.8,29.88,SW,225,0.0,-999.0,97,-99.99,,,0.00,Acu-Link.com,2013-06-28 06:42:00,
2013-06-28 01:57:00,75.6,75.0,29.88,West,270,2.2,-999.0,98,-99.99,,,0.00,Acu-Link.com,2013-06-28 06:57:00,
2013-06-28 02:12:00,75.7,75.1,29.89,SSW,202,1.6,-999.0,98,-99.99,,,0.00,Acu-Link.com,2013-06-28 07:12:00,
2013-06-28 02:28:00,75.7,75.1,29.89,SW,225,2.7,-999.0,98,-99.99,,,0.00,Acu-Link.com,2013-06-28 07:28:00,
2013-06-28 02:43:00,75.6,75.0,29.88,SW,225,2.7,-999.0,98,-99.99,,,0.00,Acu-Link.com,2013-06-28 07:43:00,
2013-06-28 02:58:00,75.6,75.0,29.88,WSW,247,1.6,-999.0,98,-99.99,,,0.00,Acu-Link.com,2013-06-28 07:58:00,
2013-06-28 03:14:00,75.4,74.8,29.87,WSW,247,2.7,-999.0,98,-99.99,,,0.00,Acu-Link.com,2013-06-28 08:14:00,
2013-06-28 03:29:00,75.2,74.6,29.87,WSW,247,3.1,-999.0,98,-99.99,,,0.00,Acu-Link.com,2013-06-28 08:29:00,
2013-06-28 03:45:00,75.4,75.1,29.87,SW,225,2.7,-999.0,99,-99.99,,,0.00,Acu-Link.com,2013-06-28 08:45:00,
2013-06-28 04:00:00,75.2,74.9,29.87,West,270,3.8,-999.0,99,-99.99,,,0.00,Acu-Link.com,2013-06-28 09:00:00,
2013-06-28 04:15:00,75.0,74.7,29.87,West,270,2.2,-999.0,99,-99.99,,,0.00,Acu-Link.com,2013-06-28 09:15:00,
2013-06-28 04:30:00,75.0,74.7,29.87,WSW,247,1.1,-999.0,99,-99.99,,,0.00,Acu-Link.com,2013-06-28 09:30:00,
2013-06-28 04:45:00,74.8,74.5,29.87,SW,225,3.1,-999.0,99,-99.99,,,0.00,Acu-Link.com,2013-06-28 09:45:00,
2013-06-28 05:00:00,75.0,74.7,29.85,SW,225,5.8,-999.0,99,-99.99,,,0.00,Acu-Link.com,2013-06-28 10:00:00,
2013-06-28 05:15:00,75.4,75.1,29.85,West,270,5.1,-999.0,99,-99.99,,,0.00,Acu-Link.com,2013-06-28 10:15:00,
2013-06-28 05:31:00,75.4,75.1,29.85,SW,225,5.8,-999.0,99,-99.99,,,0.00,Acu-Link.com,2013-06-28 10:31:00,
2013-06-28 05:46:00,75.4,75.1,29.85,SSW,202,3.1,-999.0,99,-99.99,,,0.00,Acu-Link.com,2013-06-28 10:46:00,
2013-06-28 06:01:00,75.4,75.1,29.86,West,270,4.7,-999.0,99,-99.99,,,0.00,Acu-Link.com,2013-06-28 11:01:00,
2013-06-28 06:17:00,75.4,75.1,29.86,West,270,3.8,-999.0,99,-99.99,,,0.00,Acu-Link.com,2013-06-28 11:17:00,
2013-06-28 06:32:00,75.4,75.1,29.86,West,270,2.2,-999.0,99,-99.99,,,0.00,Acu-Link.com,2013-06-28 11:32:00,
2013-06-28 06:47:00,75.6,75.3,29.87,WSW,247,2.7,-999.0,99,-99.99,,,0.00,Acu-Link.com,2013-06-28 11:47:00,
2013-06-28 07:02:00,75.7,75.4,29.86,WSW,247,3.1,-999.0,99,-99.99,,,0.00,Acu-Link.com,2013-06-28 12:02:00,
2013-06-28 07:18:00,76.5,75.9,29.88,West,270,5.1,-999.0,98,-99.99,,,0.00,Acu-Link.com,2013-06-28 12:18:00,
2013-06-28 07:33:00,77.2,76.3,29.89,WNW,292,2.7,-999.0,97,-99.99,,,0.00,Acu-Link.com,2013-06-28 12:33:00,
2013-06-28 07:48:00,77.7,76.5,29.88,West,270,4.3,-999.0,96,-99.99,,,0.00,Acu-Link.com,2013-06-28 12:48:00,
2013-06-28 08:03:00,78.3,76.4,29.88,WSW,247,4.7,-999.0,94,-99.99,,,0.00,Acu-Link.com,2013-06-28 13:03:00,
2013-06-28 08:19:00,79.3,77.1,29.90,West,270,4.7,-999.0,93,-99.99,,,0.00,Acu-Link.com,2013-06-28 13:19:00,
2013-06-28 08:34:00,80.4,77.2,29.90,NW,315,5.1,-999.0,90,-99.99,,,0.00,Acu-Link.com,2013-06-28 13:34:00,
2013-06-28 08:49:00,81.3,77.4,29.90,WNW,292,8.3,-999.0,88,-99.99,,,0.00,Acu-Link.com,2013-06-28 13:49:00,
2013-06-28 09:05:00,82.0,77.8,29.89,West,270,7.8,-999.0,87,-99.99,,,0.00,Acu-Link.com,2013-06-28 14:05:00,
2013-06-28 09:20:00,84.4,78.6,29.88,WNW,292,7.8,-999.0,83,-99.99,,,0.00,Acu-Link.com,2013-06-28 14:20:00,
2013-06-28 09:35:00,84.6,77.7,29.88,West,270,7.4,-999.0,80,-99.99,,,0.00,Acu-Link.com,2013-06-28 14:35:00,
2013-06-28 09:51:00,85.6,78.4,29.88,West,270,7.4,-999.0,79,-99.99,,,0.00,Acu-Link.com,2013-06-28 14:51:00,
2013-06-28 10:06:00,86.5,77.2,29.87,SW,225,8.3,-999.0,74,-99.99,,,0.00,Acu-Link.com,2013-06-28 15:06:00,
2013-06-28 10:21:00,86.2,76.5,29.87,West,270,8.9,-999.0,73,-99.99,,,0.00,Acu-Link.com,2013-06-28 15:21:00,
2013-06-28 10:36:00,88.2,77.1,29.86,West,270,5.1,-999.0,70,-99.99,,,0.00,Acu-Link.com,2013-06-28 15:36:00,
2013-06-28 10:51:00,89.4,77.4,29.85,WSW,247,6.3,-999.0,68,-99.99,,,0.00,Acu-Link.com,2013-06-28 15:51:00,
2013-06-28 11:07:00,90.0,77.0,29.85,West,270,6.7,-999.0,66,-99.99,,,0.00,Acu-Link.com,2013-06-28 16:07:00,
2013-06-28 11:22:00,91.9,78.5,29.85,SSW,202,6.3,-999.0,65,-99.99,,,0.00,Acu-Link.com,2013-06-28 16:22:00,
2013-06-28 11:37:00,92.1,76.7,29.85,West,270,7.4,-999.0,61,-99.99,,,0.00,Acu-Link.com,2013-06-28 16:37:00,
2013-06-28 11:52:00,93.7,77.7,29.84,WSW,247,5.1,-999.0,60,-99.99,,,0.00,Acu-Link.com,2013-06-28 16:52:00,
2013-06-28 12:08:00,92.5,76.0,29.85,SSW,202,7.8,-999.0,59,-99.99,,,0.00,Acu-Link.com,2013-06-28 17:08:00,
2013-06-28 12:23:00,92.5,76.5,29.85,WSW,247,9.8,-999.0,60,-99.99,,,0.00,Acu-Link.com,2013-06-28 17:23:00,
2013-06-28 12:38:00,92.7,77.2,29.84,West,270,5.1,-999.0,61,-99.99,,,0.00,Acu-Link.com,2013-06-28 17:38:00,
2013-06-28 12:54:00,92.7,75.2,29.84,West,270,8.9,-999.0,57,-99.99,,,0.00,Acu-Link.com,2013-06-28 17:54:00,
2013-06-28 13:09:00,94.6,77.0,29.83,West,270,8.9,-999.0,57,-99.99,,,0.00,Acu-Link.com,2013-06-28 18:09:00,
2013-06-28 13:24:00,95.0,76.8,29.83,West,270,5.1,-999.0,56,-99.99,,,0.00,Acu-Link.com,2013-06-28 18:24:00,
2013-06-28 13:39:00,95.0,76.3,29.82,SSW,202,6.3,-999.0,55,-99.99,,,0.00,Acu-Link.com,2013-06-28 18:39:00,
2013-06-28 13:54:00,96.1,77.3,29.81,WNW,292,10.3,-999.0,55,-99.99,,,0.00,Acu-Link.com,2013-06-28 18:54:00,
2013-06-28 14:10:00,96.1,76.7,29.81,WSW,247,5.8,-999.0,54,-99.99,,,0.00,Acu-Link.com,2013-06-28 19:10:00,
2013-06-28 14:25:00,95.9,74.8,29.81,West,270,4.7,-999.0,51,-99.99,,,0.00,Acu-Link.com,2013-06-28 19:25:00,
2013-06-28 14:40:00,97.0,76.4,29.80,SW,225,7.4,-999.0,52,-99.99,,,0.00,Acu-Link.com,2013-06-28 19:40:00,
2013-06-28 14:56:00,97.0,74.0,29.79,WNW,292,7.8,-999.0,48,-99.99,,,0.00,Acu-Link.com,2013-06-28 19:56:00,
2013-06-28 15:11:00,98.2,76.4,29.79,West,270,5.1,-999.0,50,-99.99,,,0.00,Acu-Link.com,2013-06-28 20:11:00,
2013-06-28 15:26:00,99.1,74.7,29.78,WSW,247,6.7,-999.0,46,-99.99,,,0.00,Acu-Link.com,2013-06-28 20:26:00,
2013-06-28 15:41:00,97.5,75.7,29.78,SSW,202,5.8,-999.0,50,-99.99,,,0.00,Acu-Link.com,2013-06-28 20:41:00,
2013-06-28 15:57:00,99.0,76.4,29.77,WSW,247,7.4,-999.0,49,-99.99,,,0.00,Acu-Link.com,2013-06-28 20:57:00,
2013-06-28 16:12:00,98.2,73.9,29.77,West,270,5.8,-999.0,46,-99.99,,,0.00,Acu-Link.com,2013-06-28 21:12:00,
2013-06-28 16:27:00,99.1,75.3,29.76,West,270,6.3,-999.0,47,-99.99,,,0.00,Acu-Link.com,2013-06-28 21:27:00,
2013-06-28 16:42:00,97.5,75.1,29.76,West,270,5.8,-999.0,49,-99.99,,,0.00,Acu-Link.com,2013-06-28 21:42:00,
2013-06-28 16:57:00,96.4,74.7,29.75,West,270,4.7,-999.0,50,-99.99,,,0.00,Acu-Link.com,2013-06-28 21:57:00,
2013-06-28 17:13:00,98.2,75.7,29.75,SW,225,4.3,-999.0,49,-99.99,,,0.00,Acu-Link.com,2013-06-28 22:13:00,
2013-06-28 17:28:00,99.1,74.7,29.74,West,270,2.7,-999.0,46,-99.99,,,0.00,Acu-Link.com,2013-06-28 22:28:00,
2013-06-28 17:43:00,98.1,75.6,29.74,SW,225,3.8,-999.0,49,-99.99,,,0.00,Acu-Link.com,2013-06-28 22:43:00,
2013-06-28 17:59:00,96.4,77.6,29.74,SSE,157,2.7,-999.0,55,-99.99,,,0.00,Acu-Link.com,2013-06-28 22:59:00,
2013-06-28 18:14:00,98.2,78.1,29.73,SSW,202,0.0,-999.0,53,-99.99,,,0.00,Acu-Link.com,2013-06-28 23:14:00,
2013-06-28 18:29:00,95.2,77.0,29.73,SSW,202,5.1,-999.0,56,-99.99,,,0.00,Acu-Link.com,2013-06-28 23:29:00,
2013-06-28 18:45:00,93.2,78.7,29.73,SSW,202,3.8,-999.0,63,-99.99,,,0.00,Acu-Link.com,2013-06-28 23:45:00,
2013-06-28 19:00:00,93.7,78.7,29.73,WSW,247,3.1,-999.0,62,-99.99,,,0.00,Acu-Link.com,2013-06-29 00:00:00,
2013-06-28 19:15:00,94.1,79.0,29.73,SW,225,3.8,-999.0,62,-99.99,,,0.00,Acu-Link.com,2013-06-29 00:15:00,
2013-06-28 19:30:00,92.8,79.8,29.72,WSW,247,1.6,-999.0,66,-99.99,,,0.00,Acu-Link.com,2013-06-29 00:30:00,
2013-06-28 19:46:00,87.6,79.5,29.73,SSW,202,3.8,-999.0,77,-99.99,,,0.00,Acu-Link.com,2013-06-29 00:46:00,
2013-06-28 20:01:00,86.0,78.3,29.71,South,180,2.7,-999.0,78,-99.99,,,0.00,Acu-Link.com,2013-06-29 01:01:00,
2013-06-28 20:16:00,85.8,78.1,29.71,WSW,247,1.6,-999.0,78,-99.99,,,0.00,Acu-Link.com,2013-06-29 01:16:00,
2013-06-28 20:31:00,84.6,77.7,29.71,SSW,202,0.0,-999.0,80,-99.99,,,0.00,Acu-Link.com,2013-06-29 01:31:00,
2013-06-28 20:46:00,82.9,77.2,29.71,SW,225,2.2,-999.0,83,-99.99,,,0.00,Acu-Link.com,2013-06-29 01:46:00,
2013-06-28 21:02:00,81.5,77.2,29.71,SSE,157,2.7,-999.0,87,-99.99,,,0.00,Acu-Link.com,2013-06-29 02:02:00,
2013-06-28 21:17:00,81.3,77.1,29.72,South,180,2.7,-999.0,87,-99.99,,,0.00,Acu-Link.com,2013-06-29 02:17:00,
2013-06-28 21:32:00,81.1,77.6,29.72,SSW,202,4.3,-999.0,89,-99.99,,,0.00,Acu-Link.com,2013-06-29 02:32:00,
2013-06-28 21:47:00,81.0,77.7,29.72,South,180,4.7,-999.0,90,-99.99,,,0.00,Acu-Link.com,2013-06-29 02:47:00,
2013-06-28 22:02:00,81.0,78.4,29.72,SSW,202,2.7,-999.0,92,-99.99,,,0.00,Acu-Link.com,2013-06-29 03:02:00,
2013-06-28 22:17:00,80.8,78.2,29.72,SSW,202,3.8,-999.0,92,-99.99,,,0.00,Acu-Link.com,2013-06-29 03:17:00,
2013-06-28 22:33:00,80.8,78.2,29.72,SSW,202,4.3,-999.0,92,-99.99,,,0.00,Acu-Link.com,2013-06-29 03:33:00,
2013-06-28 22:48:00,80.6,78.4,29.72,SSW,202,4.3,-999.0,93,-99.99,,,0.00,Acu-Link.com,2013-06-29 03:48:00,
2013-06-28 23:03:00,80.8,78.6,29.74,SSW,202,3.1,-999.0,93,-99.99,,,0.00,Acu-Link.com,2013-06-29 04:03:00,
2013-06-28 23:18:00,80.2,78.3,29.75,SSW,202,2.7,-999.0,94,-99.99,,,0.00,Acu-Link.com,2013-06-29 04:18:00,
2013-06-28 23:34:00,79.9,78.3,29.75,WSW,247,2.7,-999.0,95,-99.99,,,0.00,Acu-Link.com,2013-06-29 04:34:00,
2013-06-28 23:49:00,79.7,78.1,29.74,SSW,202,2.7,-999.0,95,-99.99,,,0.00,Acu-Link.com,2013-06-29 04:49:00,